Weather History for KJEF - November, 2012

Change the Weather History Date:

Friday, November 9, 2012

  Actual Average (KCOU) Record (KCOU)
Temperature  
Mean Temperature 62 °F 48 °F  
Max Temperature 75 °F 57 °F 78 °F (1999)
Min Temperature 48 °F 38 °F 11 °F (1991)
Degree Days  
Heating Degree Days 4 17  
Month to date heating degree days 142  
Since 1 July heating degree days 507  
Cooling Degree Days 0 0  
Month to date cooling degree days 0  
Year to date cooling degree days 1247  
Growing Degree Days 12 (Base 50)    
Moisture  
Dew Point 47 °F    
Average Humidity 57    
Maximum Humidity 66    
Minimum Humidity 46    
Precipitation  
Precipitation 0.00 in 0.11 in 1.36 in (1935)
Month to date precipitation 0.94  
Year to date precipitation 37.87  
Snow  
Snow 0.00 in 0.00 in 0.70 in (1926)
Month to date snowfall 0.1  
Since 1 July snowfall 0.1  
Since 1 September snowfall 0.1  
Snow Depth -    
Sea Level Pressure  
Sea Level Pressure 29.91 in    
Wind  
Wind Speed 7 mph (SE)    
Max Wind Speed 15 mph    
Max Gust Speed 21 mph    
Visibility 10 miles    
Events      
T = Trace of Precipitation, MM = Missing Value Source: NWS Daily Summary

Daily Weather History Graph

Daily Weather History Graph

Search for Another Location

Airport or City:

Trip Planner

Search our weather history database for the weather conditions in past years. The results will help you decide how hot, cold, wet, or windy it might be!

Date:

Astronomy

Nov. 09, 2012 Rise Set
Actual Time 6:44 AM CST 4:59 PM CST
Civil Twilight 6:16 AM CST 5:27 PM CST
Nautical Twilight 5:44 AM CST 5:59 PM CST
Astronomical Twilight 5:13 AM CST 6:30 PM CST
Moon 1:47 AM CST (11/9) 2:10 PM CST (11/9)
Length of Visible Light 11h 11m
Length of Day
10h 15m
Waning Crescent, 23% of the Moon is Illuminated
Nov 9
Waning Crescent
Nov 13
New
Nov 20
First Quarter
Nov 28
Full
Dec 6
Last Quarter

Hourly Weather History & Observations

Time (CST) Temp. Dew Point Humidity Pressure Visibility Wind Dir Wind Speed Gust Speed Precip Events Conditions
12:53 AM 50.0 °F 37.0 °F 61% 30.00 in 10.0 mi ESE 5.8 mph - N/A   Clear
1:53 AM 48.9 °F 37.9 °F 66% 29.99 in 10.0 mi Variable 4.6 mph - N/A   Clear
2:53 AM 50.0 °F 39.0 °F 66% 29.98 in 10.0 mi ESE 4.6 mph - N/A   Mostly Cloudy
3:53 AM 51.1 °F 39.0 °F 63% 29.97 in 10.0 mi ESE 4.6 mph - N/A   Mostly Cloudy
4:53 AM 51.1 °F 39.0 °F 63% 29.97 in 10.0 mi ESE 5.8 mph - N/A   Scattered Clouds
6:53 AM 51.1 °F 39.9 °F 66% 29.96 in 10.0 mi ESE 6.9 mph - N/A   Mostly Cloudy
7:53 AM 52.0 °F 41.0 °F 66% 29.97 in 10.0 mi ESE 5.8 mph - N/A   Clear
8:53 AM 57.0 °F 42.1 °F 57% 29.96 in 10.0 mi SE 8.1 mph - N/A   Clear
9:53 AM 63.0 °F 45.0 °F 52% 29.95 in 10.0 mi South 8.1 mph - N/A   Clear
10:53 AM 66.9 °F 46.9 °F 49% 29.93 in 10.0 mi South 8.1 mph - N/A   Clear
11:53 AM 71.1 °F 50.0 °F 47% 29.90 in 10.0 mi South 9.2 mph 18.4 mph N/A   Clear
12:53 PM 73.0 °F 51.1 °F 46% 29.88 in 10.0 mi SSE 12.7 mph 19.6 mph N/A   Clear
1:53 PM 73.0 °F 52.0 °F 48% 29.85 in 10.0 mi SSE 12.7 mph - N/A   Clear
2:53 PM 75.0 °F 53.1 °F 46% 29.83 in 10.0 mi SSE 15.0 mph 20.7 mph N/A   Clear
3:53 PM 75.0 °F 53.1 °F 46% 29.83 in 10.0 mi SSE 8.1 mph - N/A   Clear
4:53 PM 72.0 °F 53.1 °F 51% 29.82 in 10.0 mi SSE 8.1 mph - N/A   Clear
5:53 PM 70.0 °F 55.0 °F 59% 29.83 in 10.0 mi SSE 10.4 mph - N/A   Clear
6:53 PM 68.0 °F 54.0 °F 61% 29.85 in 10.0 mi SE 6.9 mph - N/A   Clear
7:53 PM 66.9 °F 52.0 °F 59% 29.87 in 10.0 mi SSE 9.2 mph - N/A   Clear
8:53 PM 66.0 °F 52.0 °F 60% 29.88 in 10.0 mi SSE 10.4 mph - N/A   Clear
9:53 PM 64.0 °F 52.0 °F 65% 29.89 in 10.0 mi SSE 9.2 mph - N/A   Clear
10:53 PM 64.0 °F 52.0 °F 65% 29.90 in 10.0 mi SSE 9.2 mph - N/A   Clear
11:53 PM 64.0 °F 48.9 °F 58% 29.90 in 10.0 mi SSE 9.2 mph 17.3 mph N/A   Clear